Main page


Airports :

K13-a, Netherlands

Oil platform

latitude: 53-13-04N, longitude: 3-13-13E, elevation: 31 m

Current weather observation

The report was made 18 minutes ago, at 17:25 UTC
Wind 16 kt from the North
Temperature 5°C
Humidity 75%
Pressure 1029 hPa

METAR: EHJR 201725Z AUTO 36016KT //// // ///////// 05/01 Q1029 RE// W05/H18

Time: 18:43 (17:43 UTC)

TAF: missing

Weather observations and forecasts of more than 4000 airports (METAR and TAF reports).

The available stations are represented by yellow and red dots on the map.

Hover mouse over dot to see the name of the station.

Then click to see weather observations and forecasts.

To change the map : click on the green buttons with a black cross to zoom in, on the green button with a dash to zoom out, or on the green arrows for adjacent maps.